Regional Weather Roundup
Issued by NWS

Home | Current Version | Previous Version | Text Only | Print | Product List | Glossary Off
Versions: 1 2 3 4 5 6 7 8 9 10 11 12 13 14 15 16 17 18 19 20 21 22 23 24 25 26 27 28 29 30 31 32 33 34 35 36 37 38 39 40 41 42 43 44 45 46 47 48 49 50

000
ASUS43 KMPX 211601
RWRMN
WEATHER ROUNDUP FOR MINNESOTA
NATIONAL WEATHER SERVICE TWIN CITIES/CHANHASSEN MN
1100 AM CDT FRI JUL 21 2017


NOTE: "FAIR" INDICATES FEW OR NO CLOUDS BELOW 12,000 FEET WITH NO
SIGNIFICANT WEATHER AND/OR OBSTRUCTIONS TO VISIBILITY. N/A MEANS
CURRENT SKY AND/OR WEATHER CONDITIONS ARE NOT AVAILABLE.

MNZ060>063-068>070-211700-
   Twin Cities Metro

CITY           SKY/WX    TMP DP  RH WIND       PRES   REMARKS
TWIN CITIES    CLOUDY    74  67  78 SE9       29.91F
ST PAUL        CLOUDY    73  69  87 SE13      29.91S
CRYSTAL        CLOUDY    75  65  70 SE13      29.89F
BLAINE         CLOUDY    77  72  83 SE12G17   29.90F
LAKEVILLE      DRIZZLE   70  70 100 SE5       29.91F
EDEN PRAIRIE   CLOUDY    74  68  81 SE10      29.89F
SOUTH ST PAUL  LGT RAIN  73  69  89 SE6       29.92F
LAKE ELMO      FAIR      73  70  88 SE10      29.93F
$$
MNZ001>005-007-008-013>017-022>024-027-028-211700-
   Northwest Minnesota

CITY           SKY/WX    TMP DP  RH WIND       PRES   REMARKS
BEMIDJI        SUNNY     79  64  60 SE12G20   29.86F
HALLOCK        MOSUNNY   81  68  65 SE16      29.79F
ROSEAU         CLOUDY    73  63  68 E13       29.86F
WARROAD        CLOUDY    72  63  73 E13       29.89F
THIEF RVR FALL CLOUDY    77  70  78 E7        29.84F
CROOKSTON      MOSUNNY   81  72  74 SW9       29.80F
FOSSTON        CLOUDY    79  66  65 S12       29.85S
DETROIT LAKES  SUNNY     79  68  69 S8        29.84S
MOORHEAD       MOSUNNY   82  73  74 S9        29.80S
PARK RAPIDS    PTSUNNY   80  63  55 SE13      29.86F
MAHNOMEN       FAIR      79  69  70 S8        29.82F
$$
MNZ006-009>011-018-025>026-211700-
   North Central Minnesota

CITY           SKY/WX    TMP DP  RH WIND       PRES   REMARKS
BAUDETTE       CLOUDY    74  59  59 SE13      29.90F
FLAG ISLAND    MOSUNNY   70  61  73 E5        29.90F
INTL FALLS     CLOUDY    70  60  70 E7        29.94S
WASKISH        PTSUNNY   79  64  61 E7        29.88F
BIG FORK       CLOUDY    75  61  60 SE5       29.91F
LONGVILLE      PTSUNNY   75  70  83 SE8       29.89F
GRAND RAPIDS   MOSUNNY   74  66  76 SE7       29.93F
CRANE LAKE     CLOUDY    66  61  82 CALM      29.97F
ORR            CLOUDY    70  55  60 CALM      29.92F
COOK           CLOUDY    70  61  73 CALM      29.95S
WALKER         FAIR      77  66  68 SE7       29.88F
$$
MNZ012-019>021-037-211700-
   Northeast Minnesota

CITY           SKY/WX    TMP DP  RH WIND       PRES   REMARKS
DULUTH         CLOUDY    71  61  70 E7        29.95F
ELY            CLOUDY    66  55  68 NE3       29.97F
HIBBING        CLOUDY    75  64  68 SE10      29.93F
EVELETH        CLOUDY    73  58  58 CALM      29.95F
DULUTH HARBOR  CLOUDY    66  61  82 NE9       29.94S
TWO HARBORS    MOSUNNY   79  59  50 SE6       29.94S
GRAND MARAIS     N/A     57  52  83 CALM      29.95F
G MARAIS ARPRT   N/A     64  54  68 CALM      30.01F
$$
MNZ029>031-032-039>041-046>048-054>057-064-211700-
   West Central Minnesota

CITY           SKY/WX    TMP DP  RH WIND       PRES   REMARKS
FERGUS FALLS   MOSUNNY   81  72  74 S9        29.81R
WHEATON        CLOUDY    75  70  83 SE3       29.82S
MORRIS         CLOUDY    79  72  78 E10       29.81R
ALEXANDRIA     CLOUDY    75  69  81 SE14      29.86S
ELBOW LAKE     CLOUDY    77  72  85 SE8       29.84R
WADENA         MOSUNNY   77  66  69 SE16      29.83F
GLENWOOD       CLOUDY    73  70  88 E8        29.85F
APPLETON       PTSUNNY   79  70  73 E5        29.79R
BENSON         CLOUDY    75  70  83 SE9       29.81F
ORTONVILLE     CLOUDY    79  70  73 E3        29.80R
MADISON        CLOUDY    79  75  89 E10       29.77F
WILLMAR        FAIR      73  72  94 E9        29.84F
$$
MNZ033>034-036-042>043-049>051-058-059-211700-
   Central Minnesota

CITY           SKY/WX    TMP DP  RH WIND       PRES   REMARKS
ST CLOUD       CLOUDY    76  69  79 SE13G24   29.86F
SAUK CENTRE    FAIR      74  68  82 SE9       29.85F
PAYNESVILLE    CLOUDY    74  69  83 SE13      29.85F
AITKIN         CLOUDY    79  66  65 SE10      29.90S
PINE RIVER     CLOUDY    75  64  69 SE10      29.91F
BRAINERD       CLOUDY    78  65  63 SE10      29.90R
STAPLES        CLOUDY    79  61  53 SE8       29.87R
LONG PRAIRIE   FAIR      73  68  83 E9        29.87F
LITTLE FALLS   CLOUDY    77  63  61 SE13      29.87S
LITCHFIELD     CLOUDY    73  72  94 E12       29.87F
BUFFALO        LGT RAIN  73  67  81 E7        29.89F
MAPLE LAKE     CLOUDY    74  70  87 SE5       29.88F
HUTCHINSON     SUNNY     73  71  94 E9        29.87F
$$
MNZ037-044-045-052-053-211700-
   East Central Minnesota

CITY           SKY/WX    TMP DP  RH WIND       PRES   REMARKS
PRINCETON      PTSUNNY   79  68  69 SE13G20   29.88F
MORA           CLOUDY    73  64  73 SE7       29.93S
CAMBRIDGE      PTSUNNY   79  66  65 SE10      29.88F
RUSH CITY      CLOUDY    75  68  77 S12       29.92F
MOOSE LAKE     CLOUDY    77  68  73 CALM      29.92R
HINCKLEY       FAIR      77  70  78 SE5       29.94R
CLOQUET        CLOUDY    72  61  68 E6        29.94F
MCGREGOR       CLOUDY    79  68  69 SE8       29.92S
$$
MNZ071>073-080-081-089-090-097-098-211700-
   Southwest Minnesota

CITY           SKY/WX    TMP DP  RH WIND       PRES   REMARKS
MONTEVIDEO     CLOUDY    75  73  94 E9        29.82R
GRANITE FALLS  CLOUDY    76  72  86 NW3       29.84R
CANBY          PTSUNNY   79  71  76 CALM      29.79S
MARSHALL       CLOUDY    77  71  82 S14       29.80R
REDWOOD FALLS  CLOUDY    75  70  84 SE15      29.80F
OLIVIA         CLOUDY    73  70  88 E8        29.81F
PIPESTONE      CLOUDY    75  70  83 SE12G20   29.81S
WINDOM         CLOUDY    73  72  94 SE13G20   29.85F
WORTHINGTON    CLOUDY    71  69  93 SE8       29.84F
JACKSON        HVY RAIN  70  70 100 SE15      29.87F
SLAYTON        CLOUDY    72  68  85 SE14G23   29.83F
$$
MNZ065>067-074>077-082>085-091>093-211700-
   South Central Minnesota

CITY           SKY/WX    TMP DP  RH WIND       PRES   REMARKS
MANKATO        LGT RAIN  72  70  93 SE14      29.88F
NEW ULM        DRIZZLE   72  70  94 S13       29.84F
ST JAMES       LGT RAIN  72  70  94 SE13G18   29.87F
FAIRMONT       RAIN      72  71  97 SE14      29.89F
GLENCOE        CLOUDY    76  73  91 SE10      29.87S
FARIBAULT      LGT RAIN  72  70  94 SE7       29.91F
OWATONNA       LGT RAIN  70  68  94 SE9       29.92F
WASECA         RAIN      72  70  94 SE12      29.91F
ALBERT LEA     RAIN      70  70 100 SE12      29.95F
$$
MNZ078>079-086>088-094>096-211700-
   Southeast Minnesota

CITY           SKY/WX    TMP DP  RH WIND       PRES   REMARKS
ROCHESTER      LGT RAIN  69  69 100 S13       29.99S
RED WING       LGT RAIN  72  68  88 SE5       29.94R
STANTON        DRIZZLE   72  69  88 S8        29.92S
DODGE CENTER   LGT RAIN  70  66  88 S13       29.97R
WINONA         LGT RAIN  70  68  94 CALM      29.97F
AUSTIN         LGT RAIN  68  66  94 SE12      29.95F
PRESTON        TSTM      68  66  94 SW13      30.04R
$$
ABBREVIATIONS USED IN REMARKS
   TC - TEMPERATURES IN CELSIUS
  WCI - WIND CHILL INDEX
   HX - HEAT INDEX
  VSB - VISIBILITY
$$




USA.gov is the U.S. government's official web portal to all federal, state and local government web resources and services.